GW6676 Weather Reports


time (UTC)temp
F
wind
direction
speed
knots
gust
knots
rain 1hr
in
rain 24hr
in
rain mn
in
humidity
%
barometer
mb
20260902110521 52 270 0.0 0.0 0.00 0.00 0.00 74 1016.0
20260902110030 52 270 0.0 0.0 0.00 0.00 0.00 73 1016.1
20260902105509 52 270 0.0 0.0 0.00 0.00 0.00 73 1016.1
20260902105015 52 270 0.0 0.0 0.00 0.00 0.00 73 1016.1
20260902104518 52 270 0.0 0.0 0.00 0.00 0.00 73 1016.1
20260902104011 52 270 0.0 0.0 0.00 0.00 0.00 73 1016.0
20260902103503 52 270 0.0 0.0 0.00 0.00 0.00 73 1016.1
20260902103004 53 270 0.0 0.0 0.00 0.00 0.00 73 1016.1
20260902102503 53 270 0.0 0.0 0.00 0.00 0.00 73 1016.1
20260902102003 53 270 0.0 0.0 0.00 0.00 0.00 73 1016.0
20260902101504 53 270 0.0 0.0 0.00 0.00 0.00 73 1016.0
20260902101004 53 270 0.0 0.0 0.00 0.00 0.00 73 1016.1
20260902100504 53 270 0.0 0.0 0.00 0.00 0.00 73 1016.1
20260902100008 54 270 0.0 0.0 0.00 0.00 0.00 73 1016.0
20260902095506 54 270 0.0 0.0 0.00 0.00 0.00 73 1016.0
20260902095009 54 270 0.0 0.0 0.00 0.00 0.00 73 1016.0
20260902094515 54 270 0.0 0.0 0.00 0.00 0.00 74 1015.9
20260902094010 55 270 0.0 0.0 0.00 0.00 0.00 75 1015.9
20260902093513 55 270 0.0 0.0 0.00 0.00 0.00 76 1015.9
20260902093021 55 270 0.0 0.9 0.00 0.00 0.00 78 1015.9
20260902092518 56 270 0.0 0.9 0.00 0.00 0.00 80 1015.9
20260902092003 56 270 0.0 0.0 0.00 0.00 0.00 80 1015.9
20260902091509 55 270 0.0 0.0 0.00 0.00 0.00 76 1015.9
20260902091002 55 270 0.0 0.0 0.00 0.00 0.00 72 1015.9
20260902090505 55 270 0.0 1.7 0.00 0.00 0.00 72 1015.9
20260902090006 55 270 0.0 1.7 0.00 0.00 0.00 72 1015.9
20260902085515 56 270 0.0 0.0 0.00 0.00 0.00 72 1015.8
20260902085007 56 270 0.0 0.0 0.00 0.00 0.00 72 1015.9
20260902084516 56 270 0.0 0.0 0.00 0.00 0.00 73 1015.8
20260902084008 56 270 0.0 0.0 0.00 0.00 0.00 72 1015.8
20260902083513 56 270 0.0 0.0 0.00 0.00 0.00 72 1015.8
20260902083018 56 270 0.0 0.0 0.00 0.00 0.00 72 1015.9
20260902082512 57 270 0.0 1.7 0.00 0.00 0.00 72 1015.8
20260902082016 57 270 0.0 1.7 0.00 0.00 0.00 72 1015.8
20260902081524 57 270 0.0 1.7 0.00 0.00 0.00 72 1015.9
20260902081014 57 270 0.0 1.7 0.00 0.00 0.00 73 1015.8
20260902080504 57 270 0.0 0.0 0.00 0.00 0.00 72 1015.8
20260902080008 57 270 0.0 0.0 0.00 0.00 0.00 72 1015.7
20260902075505 58 270 0.0 0.0 0.00 0.00 0.00 72 1015.8
20260902075007 58 270 0.0 0.0 0.00 0.00 0.00 71 1015.8
20260902074508 58 270 0.0 0.0 0.00 0.00 0.00 71 1015.8
20260902074008 58 270 0.0 0.0 0.00 0.00 0.00 70 1015.7
20260902073507 58 270 0.0 1.7 0.00 0.00 0.00 70 1015.8
20260902073014 58 270 0.0 1.7 0.00 0.00 0.00 70 1015.7
20260902072510 59 270 0.0 0.0 0.00 0.00 0.00 69 1015.7
20260902072015 59 270 0.0 0.0 0.00 0.00 0.00 69 1015.6
20260902071523 59 270 0.0 0.0 0.00 0.00 0.00 68 1015.6
20260902071014 59 270 0.0 0.0 0.00 0.00 0.00 68 1015.6
20260902070513 60 270 0.0 0.0 0.00 0.00 0.00 68 1015.6
20260902070027 60 270 0.0 0.0 0.00 0.00 0.00 68 1015.6
20260902065515 60 270 0.0 0.0 0.00 0.00 0.00 68 1015.6
20260902065003 60 270 0.0 0.0 0.00 0.00 0.00 68 1015.6
20260902064520 60 270 0.0 1.7 0.00 0.00 0.00 66 1015.5
20260902064007 61 270 0.0 1.7 0.00 0.00 0.00 65 1015.6
20260902063510 61 270 0.0 0.0 0.00 0.00 0.00 65 1015.6
20260902063012 61 270 0.0 0.0 0.00 0.00 0.00 65 1015.6
20260902062508 61 270 0.0 0.0 0.00 0.00 0.00 64 1015.6
20260902062008 62 270 0.0 0.0 0.00 0.00 0.00 64 1015.6
20260902061520 62 270 0.0 0.0 0.00 0.00 0.00 64 1015.6
20260902061012 62 270 0.0 0.0 0.00 0.00 0.00 63 1015.5
20260902060511 62 270 0.0 0.0 0.00 0.00 0.00 63 1015.6
20260902060028 62 270 0.0 0.0 0.00 0.00 0.00 62 1015.6
20260902055518 63 270 0.0 0.9 0.00 0.00 0.00 62 1015.6
20260902055016 63 270 0.0 1.7 0.00 0.00 0.00 61 1015.6
20260902054534 63 270 0.0 1.7 0.00 0.00 0.00 61 1015.5
20260902054004 64 270 0.0 0.0 0.00 0.00 0.00 60 1015.6
20260902053505 64 270 0.0 0.0 0.00 0.00 0.00 59 1015.6
20260902053011 64 270 0.0 0.0 0.00 0.00 0.00 58 1015.5
20260902052507 65 270 0.0 0.0 0.00 0.00 0.00 58 1015.5
20260902052008 65 270 0.0 0.0 0.00 0.00 0.00 57 1015.5
20260902051533 65 270 0.0 1.7 0.00 0.00 0.00 57 1015.5
20260902051013 65 270 0.0 1.7 0.00 0.00 0.00 57 1015.5
20260902050514 66 270 0.0 0.0 0.00 0.00 0.00 57 1015.4
20260902050030 66 270 0.0 0.0 0.00 0.00 0.00 56 1015.4
20260902045517 66 270 0.0 0.9 0.00 0.00 0.00 56 1015.3
20260902045015 67 270 0.0 1.7 0.00 0.00 0.00 56 1015.2
20260902044527 67 270 0.0 1.7 0.00 0.00 0.00 55 1015.2
20260902044016 67 270 0.0 1.7 0.00 0.00 0.00 55 1015.2
20260902043522 67 270 0.0 1.7 0.00 0.00 0.00 54 1015.2
20260902043029 68 270 0.0 1.7 0.00 0.00 0.00 55 1015.1
20260902042505 68 270 0.9 2.6 0.00 0.00 0.00 55 1014.9
20260902042007 68 262 0.0 2.6 0.00 0.00 0.00 55 1014.8
20260902041517 68 271 1.7 2.6 0.00 0.00 0.00 54 1014.7
20260902041008 69 276 0.9 2.6 0.00 0.00 0.00 54 1014.6
20260902040512 69 255 1.7 3.5 0.00 0.00 0.00 53 1014.5
20260902040025 70 264 1.7 3.5 0.00 0.00 0.00 52 1014.4
20260902035512 70 250 1.7 4.3 0.00 0.00 0.00 51 1014.5
20260902035012 70 275 1.7 5.2 0.00 0.00 0.00 49 1014.3
20260902034527 71 277 2.6 5.2 0.00 0.00 0.00 47 1014.3
20260902034016 71 272 1.7 3.5 0.00 0.00 0.00 45 1014.2
20260902033514 71 271 1.7 3.5 0.00 0.00 0.00 42 1014.3
20260902033030 72 259 1.7 3.5 0.00 0.00 0.00 41 1014.0
20260902032521 72 252 1.7 5.2 0.00 0.00 0.00 41 1014.1
20260902032020 73 266 1.7 5.2 0.00 0.00 0.00 42 1014.0
20260902031530 73 230 1.7 5.2 0.00 0.00 0.00 25 1014.0
20260902031007 73 253 1.7 7.0 0.00 0.00 0.00 24 1014.1
20260902030510 74 238 2.6 7.0 0.00 0.00 0.00 24 1014.0
20260902030018 74 270 3.5 6.1 0.00 0.00 0.00 23 1014.0
20260902025509 74 264 1.7 6.1 0.00 0.00 0.00 23 1013.9
20260902025015 75 283 3.5 6.1 0.00 0.00 0.00 22 1013.9
20260902024526 75 266 2.6 6.1 0.00 0.00 0.00 22 1013.7
20260902024013 76 275 1.7 5.2 0.00 0.00 0.00 21 1013.5
20260902023513 76 261 2.6 5.2 0.00 0.00 0.00 21 1013.6
20260902023027 77 269 0.9 3.5 0.00 0.00 0.00 21 1013.4
20260902022516 77 269 0.9 3.5 0.00 0.00 0.00 21 1013.4
20260902022018 78 273 1.7 4.3 0.00 0.00 0.00 20 1013.4
20260902021532 78 227 1.7 4.3 0.00 0.00 0.00 20 1013.3
20260902021015 79 207 1.7 5.2 0.00 0.00 0.00 20 1013.3
20260902020507 79 221 0.9 5.2 0.00 0.00 0.00 20 1013.3
20260902020018 79 236 1.7 4.3 0.00 0.00 0.00 20 1013.3
20260902015510 80 221 1.7 4.3 0.00 0.00 0.00 20 1013.3
20260902015010 80 252 2.6 6.1 0.00 0.00 0.00 20 1013.3
20260902014527 80 192 1.7 6.1 0.00 0.00 0.00 20 1013.4
20260902014011 81 259 1.7 7.0 0.00 0.00 0.00 20 1013.5
20260902013516 81 165 1.7 7.0 0.00 0.00 0.00 20 1013.3
20260902013028 81 75 1.7 7.0 0.00 0.00 0.00 19 1013.5
20260902012517 81 257 2.6 7.0 0.00 0.00 0.00 19 1013.3
20260902012019 82 237 1.7 7.0 0.00 0.00 0.00 18 1013.4
20260902011531 82 238 1.7 8.7 0.00 0.00 0.00 19 1013.2
20260902011007 82 219 1.7 8.7 0.00 0.00 0.00 18 1013.4
20260902010507 82 228 1.7 8.7 0.00 0.00 0.00 18 1013.4
20260902010013 83 214 0.9 8.7 0.00 0.00 0.00 17 1013.4
20260902005510 83 134 1.7 8.7 0.00 0.00 0.00 18 1013.4
20260902005010 83 260 1.7 6.1 0.00 0.00 0.00 19 1013.3
20260902004528 83 217 1.7 9.6 0.00 0.00 0.00 18 1013.5
20260902004014 83 321 1.7 9.6 0.00 0.00 0.00 18 1013.5
20260902003514 83 296 0.9 7.8 0.00 0.00 0.00 20 1013.6
20260902003104 84 265 1.7 7.8 0.00 0.00 0.00 19 1013.5
20260902002516 84 261 1.7 6.1 0.00 0.00 0.00 20 1013.5
20260902002014 84 216 2.6 6.1 0.00 0.00 0.00 20 1013.4
20260902001530 84 159 1.7 7.8 0.00 0.00 0.00 19 1013.5
20260902001019 84 172 0.9 7.8 0.00 0.00 0.00 21 1013.4
20260902000518 84 207 2.6 7.8 0.00 0.00 0.00 20 1013.5
20260902000009 84 178 2.6 7.8 0.00 0.00 0.00 19 1013.4
20260901235509 84 215 1.7 7.0 0.00 0.00 0.00 18 1013.4
20260901235010 85 261 2.6 8.7 0.00 0.00 0.00 19 1013.5
20260901234514 85 242 2.6 8.7 0.00 0.00 0.00 19 1013.5
20260901234010 84 251 3.5 8.7 0.00 0.00 0.00 18 1013.6
20260901233515 85 53 1.7 7.8 0.00 0.00 0.00 17 1013.6
20260901233023 86 153 1.7 8.7 0.00 0.00 0.00 19 1013.5
20260901232518 86 228 2.6 9.6 0.00 0.00 0.00 19 1013.5
20260901232016 86 145 1.7 9.6 0.00 0.00 0.00 18 1013.6
20260901231529 86 244 1.7 8.7 0.00 0.00 0.00 18 1013.6
20260901231013 86 270 3.5 10.4 0.00 0.00 0.00 19 1013.6
20260901230516 87 244 5.2 7.8 0.00 0.00 0.00 19 1013.6
20260901230031 87 134 2.6 7.0 0.00 0.00 0.00 18 1013.7
20260901225517 87 283 2.6 9.6 0.00 0.00 0.00 17 1013.8
20260901225015 86 140 3.5 11.3 0.00 0.00 0.00 19 1013.8
20260901224515 87 131 4.3 11.3 0.00 0.00 0.00 17 1013.8
20260901224008 87 105 2.6 7.8 0.00 0.00 0.00 17 1013.8
20260901223511 87 250 1.7 8.7 0.00 0.00 0.00 19 1013.9
20260901223018 87 269 2.6 8.7 0.00 0.00 0.00 18 1013.8
20260901222514 86 315 2.6 7.8 0.00 0.00 0.00 17 1013.9
20260901222014 87 295 2.6 8.7 0.00 0.00 0.00 20 1013.9
20260901221537 86 156 2.6 9.6 0.00 0.00 0.00 17 1013.7
20260901221014 87 173 3.5 9.6 0.00 0.00 0.00 20 1013.9
20260901220514 87 122 2.6 8.7 0.00 0.00 0.00 20 1014.0
20260901220037 86 207 2.6 8.7 0.00 0.00 0.00 17 1014.1
20260901215519 87 204 3.5 10.4 0.00 0.00 0.00 20 1014.1
20260901215021 87 124 4.3 10.4 0.00 0.00 0.00 21 1014.1
20260901214533 87 248 3.5 7.8 0.00 0.00 0.00 20 1014.3
20260901214017 86 148 3.5 12.2 0.00 0.00 0.00 21 1014.3
20260901213517 87 277 4.3 12.2 0.00 0.00 0.00 23 1014.3
20260901213018 86 77 2.6 7.0 0.00 0.00 0.00 22 1014.4
20260901212512 86 279 2.6 7.0 0.00 0.00 0.00 22 1014.4
20260901212015 86 152 2.6 13.9 0.00 0.00 0.00 25 1014.4
20260901211524 86 258 3.5 13.9 0.00 0.00 0.00 26 1014.5
20260901211017 87 207 3.5 9.6 0.00 0.00 0.00 25 1014.4
20260901210516 87 243 2.6 9.6 0.00 0.00 0.00 26 1014.4
20260901210027 85 163 1.7 9.6 0.00 0.00 0.00 24 1014.6
20260901205516 86 329 4.3 12.2 0.00 0.00 0.00 28 1014.8
20260901205023 86 163 5.2 12.2 0.00 0.00 0.00 31 1014.6
20260901204532 85 153 1.7 7.8 0.00 0.00 0.00 31 1014.6
20260901204018 86 222 2.6 12.2 0.00 0.00 0.00 28 1014.9
20260901203516 86 148 2.6 12.2 0.00 0.00 0.00 30 1014.8
20260901203037 86 209 4.3 12.2 0.00 0.00 0.00 31 1014.9
20260901202518 85 239 2.6 10.4 0.00 0.00 0.00 30 1014.9
20260901202012 85 227 1.7 10.4 0.00 0.00 0.00 28 1015.0
20260901201523 86 264 4.3 11.3 0.00 0.00 0.00 31 1015.1
20260901201013 86 186 5.2 13.9 0.00 0.00 0.00 28 1015.2
20260901200517 85 150 2.6 13.9 0.00 0.00 0.00 32 1015.2
20260901200026 85 161 3.5 7.8 0.00 0.00 0.00 34 1015.1
20260901195516 85 246 3.5 11.3 0.00 0.00 0.00 31 1015.2
20260901195004 85 228 3.5 11.3 0.00 0.00 0.00 32 1015.2
20260901194508 84 110 1.7 9.6 0.00 0.00 0.00 28 1015.3
20260901194008 84 107 1.7 11.3 0.00 0.00 0.00 34 1015.3
20260901193506 84 211 6.1 11.3 0.00 0.00 0.00 29 1015.4
20260901193008 85 344 3.5 9.6 0.00 0.00 0.00 33 1015.4
20260901192505 85 213 5.2 9.6 0.00 0.00 0.00 36 1015.4
20260901192008 84 246 3.5 8.7 0.00 0.00 0.00 32 1015.3
20260901191504 85 109 2.6 10.4 0.00 0.00 0.00 28 1015.3
20260901191003 84 226 5.2 10.4 0.00 0.00 0.00 31 1015.3
20260901190503 84 246 1.7 8.7 0.00 0.00 0.00 31 1015.3
20260901190007 85 243 3.5 8.7 0.00 0.00 0.00 33 1015.3
20260901185505 84 258 1.7 9.6 0.00 0.00 0.00 35 1015.3
20260901185008 84 252 1.7 9.6 0.00 0.00 0.00 38 1015.3
20260901184507 84 212 2.6 7.8 0.00 0.00 0.00 37 1015.3
20260901184006 83 178 1.7 7.8 0.00 0.00 0.00 35 1015.4
20260901183508 83 162 1.7 7.8 0.00 0.00 0.00 31 1015.4
20260901183013 83 116 1.7 6.1 0.00 0.00 0.00 38 1015.5
20260901182510 83 270 1.7 7.8 0.00 0.00 0.00 39 1015.5
20260901182011 82 225 2.6 7.8 0.00 0.00 0.00 35 1015.6
20260901181514 82 169 1.7 9.6 0.00 0.00 0.00 37 1015.5
20260901181009 81 219 5.2 10.4 0.00 0.00 0.00 46 1015.6
20260901180504 81 256 4.3 10.4 0.00 0.00 0.00 47 1015.5
20260901180004 80 330 5.2 8.7 0.00 0.00 0.00 49 1015.5
20260901175504 79 221 3.5 9.6 0.00 0.00 0.00 50 1015.5
20260901175004 79 261 3.5 9.6 0.00 0.00 0.00 49 1015.5
20260901174505 78 269 3.5 7.8 0.00 0.00 0.00 50 1015.6
20260901174008 79 271 4.3 7.8 0.00 0.00 0.00 48 1015.5
20260901173504 78 230 1.7 3.5 0.00 0.00 0.00 51 1015.5
20260901173010 77 300 2.6 4.3 0.00 0.00 0.00 47 1015.5
20260901172510 76 234 1.7 6.1 0.00 0.00 0.00 50 1015.6
20260901172008 76 330 1.7 6.1 0.00 0.00 0.00 50 1015.7
20260901171516 76 263 1.7 7.8 0.00 0.00 0.00 50 1015.6
20260901171011 76 269 3.5 7.0 0.00 0.00 0.00 50 1015.6
20260901170510 75 240 1.7 6.1 0.00 0.00 0.00 51 1015.6
20260901170016 75 260 1.7 4.3 0.00 0.00 0.00 51 1015.6
20260901165511 74 300 0.9 3.5 0.00 0.00 0.00 54 1015.5
20260901165005 73 271 0.9 3.5 0.00 0.00 0.00 54 1015.5
20260901164505 72 214 0.9 3.5 0.00 0.00 0.00 53 1015.6
20260901164005 72 231 1.7 3.5 0.00 0.00 0.00 54 1015.5
20260901163506 72 229 1.7 6.1 0.00 0.00 0.00 54 1015.5
20260901163006 71 257 1.7 6.1 0.00 0.00 0.00 55 1015.5
20260901162509 71 275 1.7 3.5 0.00 0.00 0.00 54 1015.5
20260901162008 70 273 0.0 2.6 0.00 0.00 0.00 53 1015.5
20260901161520 69 268 0.9 1.7 0.00 0.00 0.00 61 1015.5
20260901161012 68 258 0.0 1.7 0.00 0.00 0.00 61 1015.6
20260901160510 67 216 0.9 1.7 0.00 0.00 0.00 63 1015.5
20260901160017 66 202 0.0 1.7 0.00 0.00 0.00 60 1015.6
20260901155513 67 203 0.0 1.7 0.00 0.00 0.00 61 1015.7
20260901155014 66 342 0.0 1.7 0.00 0.00 0.00 59 1015.8
20260901154533 66 211 0.0 1.7 0.00 0.00 0.00 60 1015.8
20260901154013 65 228 0.0 1.7 0.00 0.00 0.00 64 1015.9
20260901153505 63 228 0.0 1.7 0.00 0.00 0.00 64 1015.8
20260901153010 62 141 0.0 1.7 0.00 0.00 0.00 65 1015.8
20260901152506 61 234 0.0 1.7 0.00 0.00 0.00 68 1015.8
20260901152007 59 234 0.0 1.7 0.00 0.00 0.00 70 1015.7
20260901151514 58 233 0.0 1.7 0.00 0.00 0.00 70 1015.7
20260901151010 57 219 0.0 1.7 0.00 0.00 0.00 72 1015.6
20260901150509 56 219 0.0 1.7 0.00 0.00 0.00 75 1015.6
20260901150017 55 219 0.0 1.7 0.00 0.00 0.00 75 1015.5
20260901145511 54 219 0.0 1.7 0.00 0.00 0.00 75 1015.5
20260901145014 54 219 0.9 1.7 0.00 0.00 0.00 76 1015.6
20260901144523 53 293 0.0 0.0 0.00 0.00 0.00 75 1015.6
20260901144016 53 279 0.0 0.0 0.00 0.00 0.00 75 1015.4
20260901143511 52 301 0.0 0.0 0.00 0.00 0.00 75 1015.4
20260901143026 52 274 0.0 0.0 0.00 0.00 0.00 76 1015.4
20260901142503 52 303 0.0 0.0 0.00 0.00 0.00 77 1015.2
20260901142004 52 301 0.0 0.0 0.00 0.00 0.00 77 1015.2
20260901141514 52 291 0.0 0.0 0.00 0.00 0.00 77 1015.1
20260901141008 52 228 0.0 0.0 0.00 0.00 0.00 77 1015.0
20260901140510 52 228 0.0 0.0 0.00 0.00 0.00 76 1014.9
20260901140019 52 227 0.0 0.0 0.00 0.00 0.00 76 1014.9
20260901135515 52 227 0.0 0.0 0.00 0.00 0.00 76 1014.8
20260901135014 52 227 0.0 0.0 0.00 0.00 0.00 76 1014.9
20260901134525 52 227 0.0 0.0 0.00 0.00 0.00 75 1015.0
20260901134015 52 227 0.0 0.0 0.00 0.00 0.00 75 1015.0
20260901133513 52 227 0.0 0.0 0.00 0.00 0.00 75 1014.9
20260901133024 52 227 0.0 0.0 0.00 0.00 0.00 75 1014.9
20260901132512 52 227 0.0 0.0 0.00 0.00 0.00 74 1014.9
20260901132017 52 225 0.0 0.0 0.00 0.00 0.00 74 1014.9
20260901131527 52 277 0.0 0.0 0.00 0.00 0.00 74 1015.0
20260901131006 52 277 0.0 0.0 0.00 0.00 0.00 74 1015.0
20260901130508 52 277 0.0 0.0 0.00 0.00 0.00 73 1015.0
20260901130016 52 277 0.0 0.0 0.00 0.00 0.00 73 1015.0
20260901125513 52 277 0.0 0.0 0.00 0.00 0.00 73 1015.0
20260901125011 52 277 0.0 0.0 0.00 0.00 0.00 72 1014.9
20260901124521 53 277 0.0 0.0 0.00 0.00 0.00 72 1014.9
20260901124011 53 277 0.0 0.0 0.00 0.00 0.00 72 1014.9
20260901123512 53 277 0.0 0.0 0.00 0.00 0.00 72 1014.9
20260901123027 53 277 0.0 0.0 0.00 0.00 0.00 72 1014.9
20260901122515 53 277 0.0 0.0 0.00 0.00 0.00 72 1014.7
20260901122015 53 277 0.0 0.0 0.00 0.00 0.00 72 1014.8
20260901121535 53 277 0.0 0.0 0.00 0.00 0.00 72 1014.6
20260901121013 53 277 0.0 0.0 0.00 0.00 0.00 71 1014.6
20260901120514 53 277 0.0 0.0 0.00 0.00 0.00 70 1014.6
20260901120028 53 277 0.0 0.0 0.00 0.00 0.00 70 1014.5
20260901115508 54 277 0.0 0.0 0.00 0.00 0.00 70 1014.4
20260901115008 54 277 0.0 0.0 0.00 0.00 0.00 70 1014.5
20260901114522 54 277 0.0 0.0 0.00 0.00 0.00 70 1014.4
20260901114011 54 277 0.0 0.0 0.00 0.00 0.00 71 1014.3
20260901113512 54 277 0.0 0.0 0.00 0.00 0.00 71 1014.4
20260901113023 54 277 0.0 0.0 0.00 0.00 0.00 71 1014.5
20260901112513 54 277 0.0 0.0 0.00 0.00 0.00 71 1014.4
20260901112016 54 277 0.0 0.0 0.00 0.00 0.00 72 1014.4
20260901111527 54 277 0.0 0.0 0.00 0.00 0.00 73 1014.3
20260901111017 54 260 0.0 0.0 0.00 0.00 0.00 73 1014.3